Starlink 32388

operational
NORAD ID: 62144 Int'l Des: 2024-224 Owner: SPXS Country: US Constellation: starlink
LEOCIRCULAR

Starlink 32388について

説明を読み込み中...

リアルタイム位置

3D地球を読み込み中...

次回通過

高度履歴

Altitude vs Time

uPlot chart will show altitude changes over time

軌道要素

1 62144U 24224F 25352.15344113 .00030361 00000-0 11081-2 0 9996
2 62144 43.0028 266.0578 0001420 268.7330 91.3359 15.27585825 59929
Epoch: Dec 18, 2025 • Age: 12 hours

現在のステータス

高度 485.7 km
速度 7.62 km/s
衛星直下点 -16.09°S, 84.3°W
打ち上げ日 Nov 30, 2024
運用期間 1 years
タイプ internet

技術仕様

分類 Payload
質量 730.00 kg
乾燥質量 700.00 kg
総質量 730.00 kg
長さ 0.30 m
直径 4.10 m
スパン 29.00 m
形状 Box + pan
製造者 SPXS
バスタイプ Starlink V2M
フェーズステータス In Orbit
所有者/国 SPXS/US

大規模コンステレーション

Loading constellations...